[Date Prev][Date Next][Thread Prev][Thread Next] - [Date Index][Thread Index][Author Index]

MIR & ISS Keps 4-9



MIR
1 16609U 86017A   99099.15429067  .00041790  00000-0  28326-3 0  3791
2 16609  51.6643 337.6544 0011716 337.3420  22.7106 15.74466574750547
ISS (ZARYA)
1 25544U 98067A   99099.16058758  .00041178  00000-0  50894-3 0  4733
2 25544  51.5929 185.5375 0005100 334.5322  25.5424 15.59691829 21825

----
Via the sarex mailing list at AMSAT.ORG courtesy of AMSAT-NA.
To unsubscribe, send "unsubscribe sarex" to Majordomo@amsat.org



AMSAT Top AMSAT Home